[[{"header":{"parameterUnit":"m.s-1","parameterCategory":1,"la1":30.2991,"la2":30.254,"lo1":-89.0895,"lo2":-89.0444,"dy":0.0017,"dx":0.0017,"nx":28,"ny":28,"refTime":"2023-07-27T03:00:00:Z","depth":0,"parameterNumber":2,"parameterNumberName":"U-component_of_WINDS"},"data":[0,0,0,0,0,0,0,0,0,0,0,0,0,0,0,0,0,0,0,0,0,0,0,0,0,0,0,0,0,0,0,0,0,0,0,0,0,0,0,0,0,0,0,0,0,0,0,0,0,0,0,0,0,0,0,0,0,0,-1.013,-1.013,0,-1.0059,-1.0058,-1.0057,-1.0001,-1.0,-0.9999,-0.9999,-0.9925,-0.9924,-0.9922,0,0,0,0,0,0,0,0,0,0,0,0,0,-1.0218,-1.0217,-1.013,-1.013,-1.0129,-1.0059,-1.0058,-1.0057,-1.0001,-1.0,-0.9999,-0.9999,-0.9926,-0.9924,-0.9922,0,0,0,0,0,0,0,0,0,0,0,0,0,-1.0167,-1.0216,-1.0131,-1.0092,-1.0088,-1.0059,-1.0058,-1.0057,-1.0001,-1.0,-0.9999,-0.9998,-0.9926,-0.9924,-0.9922,-0.9925,0,0,-0.9915,-0.9914,0,0,0,0,0,0,0,0,-1.017,-1.0163,-1.0099,-1.0095,-1.009,-1.0038,-1.0062,-1.0013,-1.0001,-1.0034,-0.9999,-0.9998,-0.9963,-0.9958,-0.9946,-0.9922,-0.9919,-0.9915,-0.9914,-0.9913,-0.9912,0,0,0,0,0,0,0,-1.0173,-1.0166,-1.0102,-1.0098,-1.0093,-1.0078,-1.007,-1.0052,-1.0004,-1.0031,-1.0027,-1.0019,-0.9961,-0.9949,-0.9944,-0.9918,-0.9915,-0.9913,-0.9912,-0.9911,-0.9893,-0.9894,0,0,0,0,0,0,-1.0183,-1.017,-1.0104,-1.01,-1.0129,-1.0078,-1.0068,-1.0055,-1.0004,-0.9996,-1.002,-1.0017,-0.9953,-0.9947,-0.9941,-0.9943,-0.9913,-0.9911,-0.991,-0.9893,-0.9894,-0.9895,0,0,0,0,0,0,-1.0185,-1.0177,-1.0107,-1.0134,-1.0124,-1.0077,-1.0063,-1.0054,-1.0042,-0.9996,-0.9987,-1.0016,-0.9952,-0.9944,-0.993,-0.9939,-0.991,-0.9908,-0.9892,-0.9893,-0.9894,-0.9945,0,0,0,0,0,0,-1.0188,-1.0179,-1.0179,-1.0134,-1.0122,-1.0097,-1.0063,-1.0054,-1.0039,-1.0034,-0.999,-0.9982,-0.9951,-0.9934,-0.9928,-0.9936,-0.9906,-0.9891,-0.9892,-0.9894,-0.9942,-0.9948,-0.9953,0,0,0,0,0,-1.0191,-1.0196,-1.018,-1.0172,-1.0123,-1.0098,-1.0091,-1.0055,-1.004,-1.004,-1.0011,-0.9983,-0.9939,-0.9933,-0.9926,-0.9933,-0.989,-0.9892,-0.9894,-0.994,-0.9947,-0.9953,0,0,0,0,0,0,-1.0244,-1.019,-1.0171,-1.0162,-1.0135,-1.0088,-1.0088,-1.0063,-1.004,-1.0037,-0.9993,-0.9983,-0.9974,-0.9952,-0.9945,-0.9934,-0.9911,-0.9912,-0.9949,-0.9955,-0.996,-0.9965,-0.9904,0,0,0,0,0,-1.0254,-1.0239,-1.0193,-1.0189,-1.0177,-1.0135,-1.0123,-1.0097,-1.0068,-1.0056,-1.0025,-0.9997,-0.9977,-0.9965,-0.9944,-0.9939,-0.9929,-0.9941,-0.9946,-0.9951,-0.9952,-0.9948,-0.9953,-0.9901,-0.9901,-0.9901,0,0,-1.0276,-1.0245,-1.0238,-1.0199,-1.0175,-1.016,-1.0126,-1.0111,-1.01,-1.0054,-1.0038,-1.0015,-0.9981,-0.9972,-0.9966,-0.9953,-0.9964,-0.9953,-0.9957,-0.9955,-0.9951,-0.9956,-0.996,-0.9902,-0.9902,-0.9902,0,0,-1.0308,-1.0283,-1.0277,-1.0254,-1.0219,-1.0191,-1.019,-1.0148,-1.013,-1.0115,-1.008,-1.0066,-1.0032,-1.0009,-0.9993,-1.0018,-0.9992,-1.0012,-1.0039,-1.0037,-1.0041,-1.0044,-1.0053,-1.0057,-1.0014,-1.0014,-1.0014,0,-1.0339,-1.0316,-1.0277,-1.0265,-1.025,-1.0208,-1.0202,-1.0182,-1.0141,-1.0132,-1.0118,-1.0075,-1.0049,-1.0034,-1.0041,-1.0029,-1.0027,-1.0017,-1.0043,-1.0046,-1.0049,-1.0057,-1.0061,-1.0016,-1.0016,-1.0016,-1.0016,0,-1.0356,-1.0341,-1.034,-1.0303,-1.0287,-1.0278,-1.0239,-1.0228,-1.0204,-1.0178,-1.0163,-1.013,-1.0102,-1.0097,-1.0073,-1.0079,-1.0072,-1.0052,-1.0027,-1.0057,-1.0064,-1.0067,-1.002,-1.0019,-1.0019,-1.0018,0,0,-1.0419,-1.0361,-1.0362,-1.0345,-1.0303,-1.029,-1.028,-1.0253,-1.0244,-1.0218,-1.0208,-1.0181,-1.0162,-1.0144,-1.0118,-1.0115,-1.0137,-1.0095,-1.0093,-1.0104,-1.0142,-1.0158,-1.0163,-1.012,-1.0121,-1.0121,-1.0145,0,-1.0445,-1.0424,-1.0389,-1.038,-1.0365,-1.0325,-1.0316,-1.029,-1.0265,-1.0249,-1.0222,-1.0204,-1.018,-1.0169,-1.0165,-1.0136,-1.0145,-1.0133,-1.0111,-1.0111,-1.0121,-1.0166,-1.0183,-1.0207,-1.0148,-1.0148,-1.0149,0,-1.0472,-1.0448,-1.0437,-1.0397,-1.039,-1.0382,-1.0355,-1.034,-1.031,-1.0292,-1.0273,-1.0244,-1.0232,-1.021,-1.0192,-1.0185,-1.0174,-1.0158,-1.0158,-1.0155,-1.0132,-1.0164,-1.0214,-1.0218,-1.0152,-1.0152,-1.0152,0,-1.0519,-1.0485,-1.0474,-1.046,-1.0414,-1.0409,-1.039,-1.0358,-1.0344,-1.0321,-1.0311,-1.0286,-1.0273,-1.0254,-1.022,-1.0207,-1.0206,-1.0181,-1.0191,-1.0192,-1.0192,-1.0193,-1.0241,-1.0185,-1.0185,-1.0185,-1.0185,0,-1.0552,-1.0547,-1.0495,-1.0488,-1.0481,-1.0442,-1.0437,-1.0413,-1.0386,-1.0374,-1.0338,-1.0328,-1.0283,-1.0268,-1.0241,-1.023,-1.0224,-1.021,-1.0203,-1.0213,-1.0215,-1.0205,-1.0203,-1.0186,-1.0186,-1.0185,-1.0185,0,-1.0604,-1.0569,-1.0554,-1.0511,-1.05,-1.0497,-1.0461,-1.0453,-1.0426,-1.0412,-1.0406,-1.0365,-1.0345,-1.0309,-1.0279,-1.0261,-1.0256,-1.0243,-1.0266,-1.0262,-1.0274,-1.0274,-1.0318,-1.0322,-1.0264,-1.0264,-1.0265,0,-1.0627,-1.0622,-1.0579,-1.0568,-1.055,-1.0534,-1.052,-1.0481,-1.0468,-1.0433,-1.043,-1.0407,-1.0387,-1.0357,-1.0324,-1.0301,-1.0288,-1.0305,-1.0284,-1.0295,-1.0289,-1.0289,-1.0289,-1.031,-1.0311,-1.0311,-1.0312,0,-1.0672,-1.0655,-1.0636,-1.0611,-1.0595,-1.0574,-1.0551,-1.0544,-1.05,-1.0487,-1.0467,-1.0451,-1.0421,-1.0399,-1.0371,-1.0351,-1.0324,-1.0319,-1.032,-1.0331,-1.0345,-1.0338,-1.028,-1.0318,-1.0317,-1.0317,-1.0317,-1.0316,-1.071,-1.0705,-1.0673,-1.0653,-1.0632,-1.0611,-1.0602,-1.0575,-1.0557,-1.0529,-1.0507,-1.0489,-1.0459,-1.0419,-1.04,-1.0385,-1.0372,-1.0374,-1.0374,-1.0376,-1.038,-1.0347,-1.038,-1.0379,-1.0379,-1.0379,-1.0379,0,-1.0754,-1.0732,-1.0714,-1.0683,-1.0668,-1.0644,-1.0617,-1.0606,-1.059,-1.0565,-1.0546,-1.0522,-1.0501,-1.0467,-1.0443,-1.0438,-1.0425,-1.0433,-1.0433,-1.0429,-1.0392,-1.0394,-1.0443,-1.0443,-1.0443,-1.0443,-1.0443,-1.0443,-1.0775,-1.0764,-1.0743,-1.0722,-1.0699,-1.0681,-1.0668,-1.0649,-1.0628,-1.0604,-1.0586,-1.0564,-1.0535,-1.0509,-1.0489,-1.0479,-1.0472,-1.0484,-1.0471,-1.0437,-1.0431,-1.0425,-1.0427,-1.0483,-1.0483,-1.0508,-1.0509,-1.0509]},{"header":{"parameterUnit":"m.s-1","parameterCategory":1,"la1":30.2991,"la2":30.254,"lo1":-89.0895,"lo2":-89.0444,"dy":0.0017,"dx":0.0017,"nx":28,"ny":28,"refTime":"2023-07-27T03:00:00:Z","depth":0,"parameterNumber":3,"parameterNumberName":"V-component_of_WINDS"},"data":[0,0,0,0,0,0,0,0,0,0,0,0,0,0,0,0,0,0,0,0,0,0,0,0,0,0,0,0,0,0,0,0,0,0,0,0,0,0,0,0,0,0,0,0,0,0,0,0,0,0,0,0,0,0,0,0,0,0,3.6914,3.6914,0,3.6904,3.6904,3.6903,3.6885,3.6885,3.6885,3.6884,3.6873,3.6873,3.6873,0,0,0,0,0,0,0,0,0,0,0,0,0,3.6918,3.6918,3.6914,3.6914,3.6914,3.6904,3.6904,3.6903,3.6886,3.6885,3.6885,3.6884,3.6873,3.6873,3.6873,0,0,0,0,0,0,0,0,0,0,0,0,0,3.6913,3.6918,3.6914,3.6904,3.6903,3.6904,3.6904,3.6903,3.6886,3.6885,3.6885,3.6884,3.6873,3.6873,3.6873,3.6883,0,0,3.6872,3.6872,0,0,0,0,0,0,0,0,3.6913,3.6913,3.6905,3.6904,3.6903,3.6895,3.69,3.6896,3.6886,3.6892,3.6884,3.6884,3.688,3.688,3.6879,3.6882,3.6881,3.6872,3.6872,3.6872,3.6872,0,0,0,0,0,0,0,3.6913,3.6913,3.691,3.6905,3.6904,3.6899,3.6898,3.69,3.6889,3.6891,3.689,3.6889,3.688,3.6879,3.6878,3.6881,3.6872,3.6872,3.6872,3.6872,3.6893,3.6893,0,0,0,0,0,0,3.6915,3.6913,3.691,3.691,3.6907,3.69,3.6898,3.6898,3.6889,3.6887,3.689,3.6888,3.6879,3.6878,3.6878,3.6889,3.6872,3.6872,3.6872,3.6892,3.6893,3.6893,0,0,0,0,0,0,3.6916,3.6915,3.6911,3.6911,3.691,3.69,3.69,3.6898,3.6898,3.6888,3.6886,3.6891,3.6879,3.6878,3.6882,3.6889,3.6872,3.6872,3.6892,3.6892,3.6893,3.6912,0,0,0,0,0,0,3.6916,3.6915,3.6919,3.6911,3.691,3.6915,3.6901,3.6899,3.6898,3.6896,3.6888,3.6886,3.6878,3.6882,3.6882,3.6888,3.6872,3.6891,3.6892,3.6893,3.6911,3.6913,3.6916,0,0,0,0,0,3.6916,3.6924,3.6919,3.6919,3.6915,3.6915,3.6915,3.6905,3.6898,3.6902,3.6896,3.6887,3.6888,3.6882,3.6882,3.6889,3.689,3.6892,3.6893,3.691,3.6913,3.6916,0,0,0,0,0,0,3.6933,3.6923,3.6917,3.6924,3.6921,3.6912,3.6916,3.6909,3.6907,3.6906,3.6894,3.6893,3.6898,3.6894,3.6888,3.6898,3.6888,3.6889,3.6901,3.6904,3.6906,3.6907,3.6872,0,0,0,0,0,3.6937,3.6939,3.693,3.6937,3.6935,3.6926,3.6926,3.692,3.6916,3.6914,3.6908,3.6904,3.6904,3.6904,3.6903,3.691,3.6908,3.6915,3.6917,3.6919,3.692,3.6925,3.6927,3.6897,3.6897,3.6897,0,0,3.6946,3.6941,3.6943,3.694,3.6937,3.6938,3.6925,3.6927,3.6928,3.6914,3.6917,3.6913,3.6908,3.6914,3.6916,3.6911,3.6929,3.6921,3.6923,3.6923,3.6926,3.6929,3.6932,3.6898,3.6898,3.6898,0,0,3.6964,3.696,3.6965,3.6963,3.6958,3.6952,3.6954,3.6947,3.6943,3.6947,3.6936,3.6937,3.6937,3.6934,3.6932,3.695,3.6941,3.695,3.6963,3.6967,3.6969,3.6971,3.6978,3.698,3.6951,3.6951,3.6951,0,3.6975,3.6978,3.6969,3.6972,3.6971,3.6959,3.6964,3.6962,3.6957,3.6957,3.6951,3.6951,3.6946,3.6952,3.6956,3.6955,3.6956,3.695,3.697,3.6972,3.6973,3.6979,3.6982,3.6952,3.6952,3.6952,3.6952,0,3.6993,3.6995,3.6999,3.6996,3.6995,3.6999,3.6991,3.6992,3.6986,3.6981,3.6984,3.6979,3.6977,3.6978,3.6972,3.6983,3.6979,3.6972,3.6961,3.6978,3.6983,3.6985,3.6954,3.6953,3.6953,3.6953,0,0,3.7019,3.7012,3.7013,3.7012,3.7007,3.7008,3.7012,3.701,3.7011,3.7009,3.7012,3.7012,3.7005,3.7004,3.6997,3.7001,3.7015,3.6993,3.6992,3.6997,3.7028,3.7033,3.7036,3.701,3.7011,3.7011,3.7028,0,3.7035,3.7042,3.7034,3.7042,3.7044,3.7033,3.7036,3.7033,3.7029,3.703,3.7025,3.7025,3.7016,3.7015,3.7019,3.7013,3.7021,3.7012,3.7012,3.7013,3.7014,3.7039,3.7044,3.706,3.703,3.703,3.7031,0,3.7055,3.7054,3.7062,3.7057,3.7057,3.706,3.7059,3.706,3.7057,3.7053,3.7052,3.7044,3.7048,3.7038,3.7042,3.7036,3.7036,3.7034,3.7034,3.7033,3.7022,3.7038,3.7065,3.7068,3.7034,3.7034,3.7033,0,3.7073,3.7074,3.7079,3.7078,3.7072,3.7075,3.7073,3.7069,3.7069,3.7068,3.7068,3.7067,3.7066,3.7066,3.7058,3.7052,3.7064,3.7053,3.7061,3.7061,3.7063,3.7063,3.709,3.7064,3.7064,3.7064,3.7064,0,3.7092,3.7097,3.7088,3.7091,3.7097,3.7088,3.7094,3.7091,3.7088,3.709,3.7081,3.7083,3.7073,3.7074,3.7068,3.7073,3.7073,3.707,3.7068,3.7071,3.7071,3.707,3.7069,3.7064,3.7064,3.7064,3.7064,0,3.7113,3.7107,3.7112,3.7106,3.7105,3.711,3.7105,3.7108,3.7103,3.7106,3.7106,3.7099,3.71,3.7093,3.7092,3.7088,3.7096,3.7092,3.7097,3.7096,3.7104,3.7103,3.7131,3.7134,3.7106,3.7107,3.7107,0,3.7125,3.7129,3.7124,3.7125,3.7124,3.7125,3.7126,3.7118,3.7118,3.7116,3.7119,3.7119,3.7119,3.7121,3.7116,3.7116,3.7112,3.7122,3.7112,3.7114,3.7112,3.7111,3.7112,3.7124,3.7124,3.7124,3.7124,0,3.7147,3.7144,3.7145,3.7145,3.7145,3.7145,3.7144,3.7145,3.7137,3.7138,3.7139,3.7139,3.714,3.714,3.7139,3.7136,3.7129,3.7128,3.713,3.7132,3.7134,3.7133,3.7102,3.7127,3.7127,3.7127,3.7126,3.7126,3.7163,3.7167,3.7164,3.7166,3.7164,3.7164,3.7166,3.7162,3.7163,3.7163,3.7159,3.7161,3.7158,3.7156,3.7154,3.7156,3.7151,3.7154,3.7154,3.7155,3.7156,3.7135,3.7156,3.7156,3.7156,3.7156,3.7156,0,3.7185,3.7183,3.7184,3.7184,3.7185,3.7179,3.7177,3.7179,3.7181,3.7179,3.718,3.7182,3.7183,3.7178,3.7178,3.718,3.7177,3.718,3.718,3.7179,3.7161,3.7159,3.7183,3.7183,3.7183,3.7183,3.7183,3.7183,3.7196,3.7201,3.7198,3.7203,3.7201,3.7204,3.7203,3.7203,3.7202,3.7204,3.7205,3.7202,3.7199,3.7199,3.72,3.7198,3.7199,3.7204,3.7201,3.7183,3.7181,3.7178,3.7176,3.7204,3.7204,3.7219,3.722,3.722]}]]